sat.trackr.live / text

‹ back to catalog

BRO-31

NORAD 69896 · 2026-156AD

PAYLOAD ACTIVE UNKNOWN

§ Identity

Operator
Country
FR
Launch date
2026-07-07
Launch site
AFWTR
Launch vehicle
Mass (kg)
RCS (m²)

External: N2YO · Heavens-Above · Gunter

§ Orbital elements

Epoch: 2026-09-19T10:42:19.053504Z

Period
96.50 min
Inclination
97.7446°
Eccentricity
0.0006036
Mean motion
14.92152888 rev/d
Perigee alt
587.0 km
Apogee alt
595.4 km
Semi-major
6,969.4 km
B*
9.1607e-5
RAAN
161.6860°
Arg perigee
273.1335°
Mean anomaly
86.9194°
Rev number
1,105

§ Raw data

BRO-311 69896U 26156AD  26262.44605386  .00000876  00000+0  91607-4 0  99992 69896  97.7446 161.6860 0006036 273.1335  86.9194 14.92152888 11056

JSON: /api/v1/satellites/69896 · /tle

For live sub-satellite position, see the globe view (requires WebGL).

§ Visibility from observer

Set your observer location to see the next 7 days of passes ≥ 10°. The values pass through the URL so the page stays shareable.

No JS? Fill the form by hand. The geolocation button needs JavaScript.